Change the Weather History Date:

Friday, December 14, 2012

  Actual Average (KPOE) Record (KPOE)
Temperature  
Mean Temperature 48 °F -  
Max Temperature 64 °F 58 °F 71 °F (1996)
Min Temperature 33 °F 38 °F 30 °F (2004)
Degree Days  
Heating Degree Days 16    
Moisture  
Dew Point 49 °F    
Average Humidity 73    
Maximum Humidity 100    
Minimum Humidity 54    
Precipitation  
Precipitation 0.00 in - - ()
Sea Level Pressure  
Sea Level Pressure 30.17 in    
Wind  
Wind Speed 2 mph (SE)    
Max Wind Speed 8 mph    
Max Gust Speed -    
Visibility 10 miles    
Events      
Averages and records for this station are not official NWS values.
T = Trace of Precipitation, MM = Missing Value Source: NWS Daily Summary

Daily Weather History Graph

Daily Weather History Graph

Search for Another Location

Airport or City:

Trip Planner

Search our weather history database for the weather conditions in past years. The results will help you decide how hot, cold, wet, or windy it might be!

Date:

Astronomy

Dec. 14, 2012 Rise Set
Actual Time 7:00 AM CST 5:10 PM CST
Civil Twilight 6:33 AM CST 5:37 PM CST
Nautical Twilight 6:03 AM CST 6:07 PM CST
Astronomical Twilight 5:34 AM CST 6:37 PM CST
Moon 8:09 AM CST (12/14) 6:59 PM CST (12/14)
Length of Visible Light 11h 03m
Length of Day
10h 10m
Waxing Crescent, 3% of the Moon is Illuminated
Dec 14
Waxing Crescent
Dec 19
First Quarter
Dec 28
Full
Jan 4
Last Quarter
Jan 11
New

Hourly Weather History & Observations

Time (CST) Temp. Dew Point Humidity Pressure Visibility Wind Dir Wind Speed Gust Speed Precip Events Conditions
12:15 AM - - N/A% 30.28 in 10.0 mi Calm Calm - N/A   Clear
12:35 AM - - N/A% 30.27 in 10.0 mi Calm Calm - N/A   Clear
12:55 AM - - N/A% 30.28 in 10.0 mi Calm Calm - N/A   Clear
1:15 AM - - N/A% 30.28 in 10.0 mi Calm Calm - N/A   Clear
1:35 AM - - N/A% 30.27 in 10.0 mi Calm Calm - N/A   Clear
1:55 AM - - N/A% 30.26 in 10.0 mi Calm Calm - N/A   Clear
2:15 AM - - N/A% 30.25 in 10.0 mi Calm Calm - N/A   Clear
2:35 AM - - N/A% 30.26 in 10.0 mi Calm Calm - N/A   Clear
2:55 AM - - N/A% 30.26 in 10.0 mi Calm Calm - N/A   Clear
3:15 AM - - N/A% 30.26 in 10.0 mi Calm Calm - N/A   Clear
3:35 AM - - N/A% 30.25 in 10.0 mi Calm Calm - N/A   Clear
3:55 AM - - N/A% 30.25 in 10.0 mi Calm Calm - N/A   Clear
4:15 AM - - N/A% 30.24 in 10.0 mi Calm Calm - N/A   Clear
4:35 AM - - N/A% 30.23 in 10.0 mi Calm Calm - N/A   Clear
5:15 AM - - N/A% 30.23 in 10.0 mi Calm Calm - N/A   Clear
5:35 AM 33.8 °F 33.8 °F 100% 30.25 in 10.0 mi Calm Calm - N/A   Mostly Cloudy
5:55 AM - - N/A% 30.24 in 10.0 mi Calm Calm - N/A   Mostly Cloudy
6:15 AM - - N/A% 30.25 in 10.0 mi Calm Calm - N/A   Scattered Clouds
6:35 AM - - N/A% 30.24 in 10.0 mi Calm Calm - N/A   Scattered Clouds
6:55 AM 35.6 °F 35.6 °F 100% 30.26 in 10.0 mi Calm Calm - N/A   Scattered Clouds
7:15 AM 35.6 °F 35.6 °F 100% 30.27 in 10.0 mi Calm Calm - N/A   Scattered Clouds
7:35 AM - - N/A% 30.27 in 10.0 mi Calm Calm - N/A   Clear
7:55 AM - - N/A% 30.28 in 10.0 mi Calm Calm - N/A   Clear
8:15 AM 41.0 °F 41.0 °F 100% 30.28 in 10.0 mi Calm Calm - N/A   Scattered Clouds
8:35 AM 42.8 °F 41.0 °F 93% 30.27 in 10.0 mi Calm Calm - N/A   Mostly Cloudy
8:55 AM 46.4 °F 37.4 °F 71% 30.27 in 10.0 mi Calm Calm - N/A   Mostly Cloudy
9:15 AM 48.2 °F 37.4 °F 66% 30.28 in 10.0 mi Calm Calm - N/A   Scattered Clouds
9:35 AM 51.8 °F 37.4 °F 58% 30.27 in 10.0 mi Calm Calm - N/A   Scattered Clouds
9:55 AM 55.4 °F 39.2 °F 54% 30.27 in 10.0 mi ESE 4.6 mph - N/A   Scattered Clouds
10:15 AM 55.4 °F 41.0 °F 58% 30.26 in 10.0 mi ESE 6.9 mph - N/A   Scattered Clouds
10:35 AM 59.0 °F 42.8 °F 55% 30.26 in 10.0 mi ESE 5.8 mph - N/A   Scattered Clouds
10:55 AM 59.0 °F 42.8 °F 55% 30.26 in 10.0 mi SE 4.6 mph - N/A   Mostly Cloudy
11:15 AM 59.0 °F 44.6 °F 59% 30.24 in 10.0 mi ESE 8.1 mph - N/A   Overcast
11:35 AM 59.0 °F 44.6 °F 59% 30.24 in 10.0 mi SE 4.6 mph - N/A   Overcast
12:15 PM 60.8 °F 46.4 °F 59% 30.21 in 10.0 mi East 3.5 mph - N/A   Mostly Cloudy
12:35 PM 60.8 °F 46.4 °F 59% 30.19 in 10.0 mi SSE 4.6 mph - N/A   Mostly Cloudy
12:55 PM 62.6 °F 48.2 °F 59% 30.17 in 10.0 mi SE 5.8 mph - N/A   Scattered Clouds
1:15 PM 62.6 °F 48.2 °F 59% 30.15 in 10.0 mi SE 5.8 mph - N/A   Clear
1:35 PM 62.6 °F 48.2 °F 59% 30.14 in 10.0 mi ESE 3.5 mph - N/A   Scattered Clouds
1:55 PM 62.6 °F 50.0 °F 63% 30.14 in 10.0 mi ESE 4.6 mph - N/A   Mostly Cloudy
2:15 PM 62.6 °F 51.8 °F 68% 30.12 in 10.0 mi ESE 4.6 mph - N/A   Scattered Clouds
2:35 PM 62.6 °F 51.8 °F 68% 30.13 in 10.0 mi Calm Calm - N/A   Mostly Cloudy
2:55 PM 62.6 °F 51.8 °F 68% 30.12 in 10.0 mi Calm Calm - N/A   Overcast
3:15 PM 62.6 °F 53.6 °F 72% 30.10 in 10.0 mi Calm Calm - N/A   Mostly Cloudy
3:35 PM 64.4 °F 53.6 °F 68% 30.10 in 10.0 mi Calm Calm - N/A   Mostly Cloudy
3:55 PM 62.6 °F 53.6 °F 72% 30.10 in 10.0 mi SE 5.8 mph - N/A   Overcast
4:15 PM 62.6 °F 53.6 °F 72% 30.09 in 10.0 mi SE 3.5 mph - N/A   Overcast
4:55 PM 62.6 °F 53.6 °F 72% 30.07 in 10.0 mi SE 3.5 mph - N/A   Mostly Cloudy
5:15 PM 62.6 °F 53.6 °F 72% 30.07 in 10.0 mi SE 5.8 mph - N/A   Scattered Clouds
5:35 PM 60.8 °F 53.6 °F 77% 30.07 in 10.0 mi SE 4.6 mph - N/A   Scattered Clouds
6:15 PM 60.8 °F 53.6 °F 77% 30.06 in 10.0 mi SE 4.6 mph - N/A   Clear
6:35 PM 60.8 °F 53.6 °F 77% 30.06 in 10.0 mi SE 4.6 mph - N/A   Clear
6:55 PM 60.8 °F 53.6 °F 77% 30.06 in 10.0 mi ESE 4.6 mph - N/A   Clear
7:15 PM 60.8 °F 53.6 °F 77% 30.07 in 10.0 mi SE 3.5 mph - N/A   Clear
7:55 PM 60.8 °F 53.6 °F 77% 30.07 in 10.0 mi SE 5.8 mph - N/A   Clear
8:15 PM 60.8 °F 53.6 °F 77% 30.06 in 10.0 mi SE 4.6 mph - N/A   Clear
8:35 PM 60.8 °F 53.6 °F 77% 30.06 in 10.0 mi SSE 4.6 mph - N/A   Clear
8:55 PM 60.8 °F 53.6 °F 77% 30.05 in 10.0 mi SE 8.1 mph - N/A   Clear
9:15 PM 60.8 °F 53.6 °F 77% 30.04 in 10.0 mi SE 8.1 mph - N/A   Clear
9:35 PM 60.8 °F 53.6 °F 77% 30.05 in 10.0 mi SE 6.9 mph - N/A   Clear
9:55 PM 60.8 °F 53.6 °F 77% 30.05 in 10.0 mi SE 5.8 mph - N/A   Clear
10:15 PM 59.0 °F 53.6 °F 82% 30.05 in 10.0 mi SSE 6.9 mph - N/A   Clear
10:35 PM 59.0 °F 53.6 °F 82% 30.05 in 10.0 mi SE 4.6 mph - N/A   Scattered Clouds
10:55 PM 59.0 °F 53.6 °F 82% 30.04 in 10.0 mi SE 5.8 mph - N/A   Overcast
11:15 PM 59.0 °F 53.6 °F 82% 30.05 in 10.0 mi SE 5.8 mph - N/A   Overcast
11:35 PM 60.8 °F 53.6 °F 77% 30.05 in 10.0 mi SE 5.8 mph - N/A   Overcast
11:55 PM 59.0 °F 53.6 °F 82% 30.03 in 10.0 mi SE 4.6 mph - N/A   Overcast